Location: Briis
(48.6240°N, 2.1211°E)
Time: 02:48:15
(UTC+00:00)

Cosmos 1703 Rocket - Pass Details

Date: 25 September 2020
Orbit: 606 x 632 km, 82.5° (Epoch: 22 October)

Event Time Altitude Azimuth Distance (km) Brightness Sun altitude
Rises 04:59:04 0° 193° (SSW) 2,853 6.8 -8.0°
Reaches altitude 10° 05:01:17 10° 195° (SSW) 1,955 5.9 -7.7°
Maximum altitude 05:05:36 74° 280° (W) 641 3.5 -7.0°
Drops below altitude 10° 05:09:59 10° 6° (N) 1,982 6.3 -6.2°
Sets 05:12:14 0° 9° (N) 2,896 7.2 -5.9°
